This demonstration page uses our WeatherBlox Daily Observations layout. Learn more.

Left ArrowRight Arrow

38.20091, -84.87328

Hourly Observations for May 1, 2020

Temp ( °F °C ) Dew Point ( °F °C ) Humidity (%) Winds ( mph kmh ) Pressure ( in mb ) Visibility ( mi km ) Precip ( " mm )
12:53 am 00:53 Cloudy 49 9.4 40 4.4 71 71 WNW 7 11 29.88 1012 10 16 0.00 0.00
1:53 am 01:53 Clear 48 8.9 39 3.9 71 71 W 8 13 29.87 1011 10 16 0.00 0.00
2:53 am 02:53 Clear 48 8.9 38 3.3 68 68 W 9 15 29.86 1011 10 16 0.00 0.00
3:53 am 03:53 Clear 48 8.9 37 2.8 66 66 WNW 8 13 29.87 1012 10 16 0.00 0.00
4:53 am 04:53 Clear 45 7.2 37 2.8 74 74 WNW 6 9 29.91 1013 10 16 0.00 0.00
5:53 am 05:53 Mostly Clear 45 7.2 37 2.8 74 74 WNW 5 7 29.93 1014 10 16 0.00 0.00
6:53 am 06:53 Sunny 44 6.7 37 2.8 76 76 WNW 5 7 29.95 1014 10 16 0.00 0.00
7:41 am 07:41 Mostly Cloudy 44 6.7 37 2.8 76 76 NW 6 9 29.99 1016 10 16 0.00 0.00
7:53 am 07:53 Cloudy 45 7.2 38 3.3 77 77 WNW 5 7 29.98 1015 10 16 0.00 0.00
8:53 am 08:53 Cloudy 47 8.3 39 3.9 74 74 NW 8 13 30.02 1017 10 16 0.00 0.00
9:53 am 09:53 Cloudy 48 8.9 40 4.4 74 74 NNW 7 11 30.05 1018 10 16 0.00 0.00
10:39 am 10:39 Partly Cloudy 52 11.1 41 5 66 66 VRB 7 11 30.06 1018 10 16 0.00 0.00
10:53 am 10:53 Partly Cloudy 52 11.1 41 5 66 66 N 3 6 30.05 1018 10 16 0.00 0.00
11:53 am 11:53 Partly Cloudy 56 13.3 44 6.7 65 65 VRB 6 9 30.06 1018 10 16 0.00 0.00
12:53 pm 12:53 Mostly Sunny 60 15.6 45 7.2 58 58 WSW 6 9 30.06 1018 10 16 0.00 0.00
1:53 pm 13:53 Partly Cloudy 62 16.7 45 7.2 54 54 NW 9 15 30.04 1017 10 16 0.00 0.00
2:53 pm 14:53 Sunny 66 18.9 46 7.8 49 49 VRB 5 7 30.05 1018 10 16 0.00 0.00
3:53 pm 15:53 Sunny 67 19.4 44 6.7 44 44 W 6 9 30.04 1017 10 16 0.00 0.00
4:53 pm 16:53 Sunny 68 20 44 6.7 42 42 W 5 7 30.03 1017 10 16 0.00 0.00
5:53 pm 17:53 Sunny 69 20.6 42 5.6 38 38 NNW 6 9 30.02 1017 10 16 0.00 0.00
6:53 pm 18:53 Sunny 68 20 41 5 38 38 NW 6 9 30.03 1017 10 16 0.00 0.00
7:53 pm 19:53 Sunny 66 18.9 41 5 40 40 NW 5 7 30.04 1017 10 16 0.00 0.00
8:53 pm 20:53 Clear 57 13.9 44 6.7 62 62 Calm 30.06 1018 10 16 0.00 0.00
9:53 pm 21:53 Clear 54 12.2 46 7.8 75 75 Calm 30.08 1019 10 16 0.00 0.00
10:53 pm 22:53 Clear 56 13.3 46 7.8 70 70 SE 6 9 30.06 1018 10 16 0.00 0.00
11:53 pm 23:53 Clear 56 13.3 44 6.7 65 65 SE 3 6 30.06 1018 10 16 0.00 0.00

Powered by AerisWeather